Carroll, IA

5:23 PM CDT on July 21, 2017 (GMT -0500)
Neu

Weather History for KCIN - February, 2014

Change the Weather History Date:

Wednesday, February 26, 2014

  Actual Average Record
Temperature  
Mean Temperature 8 °F -  
Max Temperature 24 °F 40 °F 62 °F (1988)
Min Temperature -9 °F 18 °F -22 °F (1963)
Degree Days  
Heating Degree Days 58    
Moisture  
Dew Point 1 °F    
Average Humidity 73    
Maximum Humidity 85    
Minimum Humidity 58    
Precipitation  
Precipitation 0.00 in - - ()
Sea Level Pressure  
Sea Level Pressure 30.08 in    
Wind  
Wind Speed 14 mph (West)    
Max Wind Speed 26 mph    
Max Gust Speed 33 mph    
Visibility 10 miles    
Events      
Averages and records for this station are not official NWS values.
T = Trace of Precipitation, MM = Missing Value Source: NWS Daily Summary

Daily Weather History Graph

Daily Weather History Graph

Search for Another Location

Airport or City:

Trip Planner

Search our weather history database for the weather conditions in past years. The results will help you decide how hot, cold, wet, or windy it might be!

Date:

Astronomy

Feb. 26, 2014 Rise Set
Actual Time 6:58 AM CST 6:05 PM CST
Civil Twilight 6:30 AM CST 6:33 PM CST
Nautical Twilight 5:58 AM CST 7:06 PM CST
Astronomical Twilight 5:26 AM CST 7:38 PM CST
Moon 4:48 AM CST (2/26) 3:19 PM CST (2/26)
Length of Visible Light 12h 03m
Length of Day
11h 06m
Waning Crescent, 10% of the Moon is Illuminated
Feb 26
Waning Crescent
Mar 1
New
Mar 8
First Quarter
Mar 16
Full
Mar 23
Last Quarter

Hourly Weather History & Observations

Time (CST) Temp. Windchill Dew Point Humidity Pressure Visibility Wind Dir Wind Speed Gust Speed Precip Events Conditions
12:15 AM -5.8 °F -22.4 °F -13.0 °F 71% 30.42 in 10.0 mi WNW 9.2 mph - N/A   Overcast
12:35 AM -2.2 °F -18.0 °F -9.4 °F 71% 30.42 in 10.0 mi WNW 9.2 mph - N/A   Overcast
12:55 AM -5.8 °F -23.4 °F -11.2 °F 77% 30.42 in 10.0 mi WNW 10.4 mph - N/A   Mostly Cloudy
1:15 AM -5.8 °F -23.4 °F -11.2 °F 77% 30.42 in 10.0 mi West 10.4 mph - N/A   Mostly Cloudy
1:35 AM -5.8 °F -24.4 °F -11.2 °F 77% 30.41 in 10.0 mi West 11.5 mph - N/A   Mostly Cloudy
1:55 AM -5.8 °F -23.4 °F -13.0 °F 71% 30.41 in 10.0 mi West 10.4 mph - N/A   Scattered Clouds
2:15 AM -7.6 °F -25.7 °F -13.0 °F 77% 30.40 in 10.0 mi West 10.4 mph - N/A   Scattered Clouds
2:35 AM -7.6 °F -26.6 °F -11.2 °F 84% 30.38 in 10.0 mi West 11.5 mph - N/A   Scattered Clouds
2:55 AM -9.4 °F -26.8 °F -13.0 °F 84% 30.37 in 10.0 mi West 9.2 mph - N/A   Scattered Clouds
3:15 AM -9.4 °F -25.6 °F -13.0 °F 84% 30.35 in 10.0 mi West 8.1 mph - N/A   Scattered Clouds
3:35 AM -7.6 °F -25.7 °F -11.2 °F 84% 30.35 in 10.0 mi West 10.4 mph - N/A   Partly Cloudy
3:55 AM -9.4 °F -26.8 °F -13.0 °F 84% 30.34 in 10.0 mi WSW 9.2 mph - N/A   Partly Cloudy
4:15 AM -7.6 °F -25.7 °F -11.2 °F 84% 30.34 in 10.0 mi West 10.4 mph - N/A   Scattered Clouds
4:35 AM -7.6 °F -23.4 °F -11.2 °F 84% 30.33 in 10.0 mi West 8.1 mph - N/A   Mostly Cloudy
4:55 AM -7.6 °F -25.7 °F -11.2 °F 84% 30.32 in 10.0 mi West 10.4 mph - N/A   Mostly Cloudy
5:15 AM -7.6 °F -25.7 °F -11.2 °F 84% 30.31 in 10.0 mi West 10.4 mph - N/A   Overcast
5:35 AM -7.6 °F -23.4 °F -11.2 °F 84% 30.30 in 10.0 mi West 8.1 mph - N/A   Mostly Cloudy
5:55 AM -7.6 °F -22.1 °F -11.2 °F 84% 30.28 in 10.0 mi WNW 6.9 mph - N/A   Mostly Cloudy
6:15 AM -9.4 °F -26.8 °F -13.0 °F 84% 30.27 in 10.0 mi West 9.2 mph - N/A   Scattered Clouds
6:30 AM -7.6 °F -25.7 °F -11.2 °F 84% 30.26 in 10.0 mi West 10.4 mph - N/A   Partly Cloudy
6:55 AM -7.6 °F -27.5 °F -11.2 °F 84% 30.26 in 10.0 mi West 12.7 mph - N/A   Clear
7:10 AM -5.8 °F -25.2 °F -9.4 °F 84% 30.25 in 10.0 mi West 12.7 mph - N/A   Clear
7:35 AM -5.8 °F -22.4 °F -9.4 °F 84% 30.24 in 10.0 mi West 9.2 mph - N/A   Clear
7:55 AM -5.8 °F -22.4 °F -9.4 °F 84% 30.24 in 10.0 mi West 9.2 mph - N/A   Clear
8:15 AM -4.0 °F -23.0 °F -7.6 °F 85% 30.23 in 10.0 mi West 12.7 mph - N/A   Clear
8:35 AM -2.2 °F -20.7 °F -7.6 °F 78% 30.22 in 10.0 mi West 12.7 mph - N/A   Clear
8:55 AM -2.2 °F -21.5 °F -7.6 °F 78% 30.21 in 10.0 mi WSW 13.8 mph - N/A   Clear
9:15 AM -2.2 °F -23.5 °F -7.6 °F 78% 30.20 in 10.0 mi WSW 17.3 mph - N/A   Clear
9:35 AM -0.4 °F -18.4 °F -7.6 °F 72% 30.18 in 10.0 mi WSW 12.7 mph - N/A   Clear
9:55 AM 1.4 °F -18.8 °F -5.8 °F 72% 30.17 in 10.0 mi WSW 17.3 mph - N/A   Clear
10:15 AM 3.2 °F -17.6 °F -4.0 °F 72% 30.15 in 10.0 mi WSW 19.6 mph - N/A   Clear
10:35 AM 3.2 °F -19.9 °F -2.2 °F 78% 30.14 in 8.0 mi WSW 25.3 mph - N/A   Clear
10:55 AM 5.0 °F -16.2 °F -0.4 °F 78% 30.13 in 4.0 mi WSW 21.9 mph 31.1 mph N/A   Haze
11:15 AM 6.8 °F -13.8 °F 1.4 °F 79% 30.10 in 6.0 mi SW 21.9 mph 28.8 mph N/A   Haze
11:35 AM 8.6 °F -11.4 °F 3.2 °F 79% 30.09 in 8.0 mi SW 21.9 mph 27.6 mph N/A   Clear
11:55 AM 10.4 °F -9.1 °F 3.2 °F 73% 30.07 in 9.0 mi SW 21.9 mph 27.6 mph N/A   Clear
12:15 PM 10.4 °F -8.2 °F 5.0 °F 79% 30.06 in 10.0 mi SW 19.6 mph - N/A   Clear
12:35 PM 12.2 °F -6.7 °F 6.8 °F 79% 30.03 in 8.0 mi SW 21.9 mph 28.8 mph N/A   Clear
12:55 PM 14.0 °F -5.8 °F 6.8 °F 73% 30.00 in 5.0 mi WSW 26.5 mph 33.4 mph N/A   Haze
1:15 PM 15.8 °F -2.7 °F 8.6 °F 73% 29.98 in 7.0 mi SW 24.2 mph - N/A   Clear
1:35 PM 17.6 °F -1.0 °F 10.4 °F 73% 29.94 in 6.0 mi SW 26.5 mph 33.4 mph N/A   Haze
1:55 PM 17.6 °F 0.1 °F 12.2 °F 79% 29.93 in 6.0 mi SW 23.0 mph 32.2 mph N/A   Haze
2:15 PM 19.4 °F 1.8 °F 12.2 °F 74% 29.91 in 6.0 mi SW 25.3 mph 31.1 mph N/A   Haze
2:35 PM 19.4 °F 2.1 °F 14.0 °F 80% 29.90 in 9.0 mi WSW 24.2 mph - N/A   Clear
2:55 PM 21.2 °F 5.2 °F 14.0 °F 74% 29.89 in 10.0 mi WSW 21.9 mph 33.4 mph N/A   Clear
3:15 PM 23.0 °F 7.2 °F 14.0 °F 68% 29.87 in 9.0 mi WSW 23.0 mph 29.9 mph N/A   Clear
3:35 PM 23.0 °F 8.3 °F 15.8 °F 74% 29.85 in 10.0 mi WSW 19.6 mph 27.6 mph N/A   Clear
3:55 PM 24.8 °F 9.3 °F 15.8 °F 69% 29.83 in 10.0 mi WSW 24.2 mph - N/A   Clear
4:15 PM 24.8 °F 10.0 °F 15.8 °F 69% 29.83 in 10.0 mi West 21.9 mph - N/A   Clear
4:35 PM 24.8 °F 10.0 °F 14.0 °F 64% 29.82 in 10.0 mi WSW 21.9 mph 31.1 mph N/A   Clear
4:55 PM 24.8 °F 10.3 °F 14.0 °F 64% 29.82 in 10.0 mi West 20.7 mph 26.5 mph N/A   Clear
5:15 PM 24.8 °F 9.6 °F 14.0 °F 64% 29.81 in 10.0 mi WSW 23.0 mph - N/A   Clear
5:35 PM 24.8 °F 9.6 °F 12.2 °F 59% 29.81 in 10.0 mi WSW 23.0 mph - N/A   Clear
5:55 PM 24.8 °F 10.3 °F 12.2 °F 59% 29.80 in 10.0 mi West 20.7 mph 26.5 mph N/A   Clear
6:15 PM 24.8 °F 11.9 °F 12.2 °F 59% 29.82 in 10.0 mi West 16.1 mph - N/A   Clear
6:35 PM 23.0 °F 9.6 °F 12.2 °F 63% 29.83 in 10.0 mi West 16.1 mph - N/A   Clear
6:55 PM 23.0 °F 8.7 °F 14.0 °F 68% 29.83 in 10.0 mi West 18.4 mph - N/A   Clear
7:15 PM 23.0 °F 9.6 °F 12.2 °F 63% 29.84 in 10.0 mi West 16.1 mph - N/A   Clear
7:35 PM 23.0 °F 9.2 °F 12.2 °F 63% 29.84 in 10.0 mi WNW 17.3 mph 23.0 mph N/A   Clear
7:55 PM 23.0 °F 8.7 °F 10.4 °F 59% 29.85 in 10.0 mi WNW 18.4 mph 25.3 mph N/A   Clear
8:15 PM 23.0 °F 9.2 °F 10.4 °F 59% 29.85 in 10.0 mi WNW 17.3 mph 24.2 mph N/A   Clear
8:35 PM 23.0 °F 9.6 °F 10.4 °F 59% 29.86 in 10.0 mi WNW 16.1 mph 24.2 mph N/A   Clear
8:55 PM 23.0 °F 8.7 °F 10.4 °F 59% 29.87 in 10.0 mi WNW 18.4 mph - N/A   Clear
9:15 PM 23.0 °F 8.0 °F 12.2 °F 63% 29.88 in 10.0 mi NW 20.7 mph 28.8 mph N/A   Clear
9:35 PM 21.2 °F 3.9 °F 10.4 °F 63% 29.89 in 10.0 mi NW 26.5 mph 32.2 mph N/A   Clear
9:55 PM 21.2 °F 6.0 °F 8.6 °F 58% 29.90 in 10.0 mi NW 19.6 mph 29.9 mph N/A   Clear
10:15 PM 19.4 °F 2.5 °F 8.6 °F 63% 29.91 in 10.0 mi NNW 23.0 mph 28.8 mph N/A   Clear
10:35 PM 17.6 °F 0.5 °F 8.6 °F 68% 29.92 in 10.0 mi NNW 21.9 mph - N/A   Clear
10:55 PM 15.8 °F -1.5 °F 6.8 °F 68% 29.93 in 10.0 mi NNW 20.7 mph 26.5 mph N/A   Clear
11:15 PM 14.0 °F -2.0 °F 6.8 °F 73% 29.94 in 10.0 mi NNW 16.1 mph - N/A   Partly Cloudy
11:35 PM 14.0 °F -2.0 °F 5.0 °F 67% 29.95 in 10.0 mi NNW 16.1 mph - N/A   Mostly Cloudy
11:55 PM 14.0 °F -2.0 °F 3.2 °F 62% 29.97 in 10.0 mi NNW 16.1 mph 25.3 mph N/A   Scattered Clouds